Torna al catalogo

ATLAS 5 CENTAUR R/B

AttivoVLEO
NORAD 49329·ROCKET BODY·🇺🇸 United States

Lanciato Oct 16, 2021 da Cape Canaveral Space Force Station

Loading…

Prossimi Passaggi (prossime 24 ore)

TLE

ObsoletoSource: Space-Track

Epoca: Oct 16, 2021, 09:47 UTC

1 49329U 21093B   21289.40775685  .00002371 -74891-5  00000-0 0  9994
2 49329  28.4700 357.4008 0105000 216.7000 268.5023 16.15960640    03

Traccia ATLAS 5 CENTAUR R/B in tempo reale con AllMySat

Download on the App Store